Content
SEND FEEDBACK

Daily
Averages
Monthly
Summary
United States of America

SOUTH LAKE TAHOE, CALIFORNIA


Home > North America > United States > California
Elevation: 1908 meters     Latitude: 38 53N     Longitude: 119 59W

WEATHER
 
SELECT A DAY
Number of Records: 174,420;   Date Range: 1/1/95 - 7/29/14
 
SHARE

PRINT THIS DATA

[ ← Previous Day ]
WEATHER ALMANAC - 14 SEPTEMBER, 2013
[ Next Day → ]
[ °F ]   °C
Weather ElementAverageHighLow
Temperature16.3 °C25.6 °C (1:53 pm)6.7 °C (6:53 am)
Dewpoint6.6 °C8.9 °C (10:53 am)3.9 °C (6:53 am)
Humidity57 %83 % (4:53 am)26 % (2:53 pm)
Barometer1012.5 hPa1014.6 hPa (6:53 am)1011.2 hPa (1:53 pm)
Wind Speed2.4 km/h14.8 km/h (1:53 pm)
Weather ElementAverage
Visibility16.1 km
Wind DirectionNNE (36.5 °)

Weather ElementTotal
Precipitation---
Heating Degree Days2.2 (Base 18.3)
Growing Degree Days6.2 (Base 10)
Averaged from 23 records on 14 September, 2013
WEATHER CONDITIONS BREAKOUT
WIND DIRECTION BREAKOUT
WEATHER BY HOUR - 14 SEPTEMBER, 2013
[ °F ]   °C
Local TimeTemperatureDewpointHumidityBarometerVisibilityWind DirectionWind SpeedGust SpeedPrecipitationEventsConditions
1:53 AM10 °C6.7 °C80 %1012.5 hPa16.1 kmCalmClear
2:53 AM9.4 °C6.1 °C80 %1012.9 hPa16.1 kmSouth (190°)5.6 km/hClear
3:53 AM8.9 °C5.6 °C80 %1013.2 hPa16.1 kmCalmClear
4:53 AM7.8 °C5 °C83 %1013.5 hPa16.1 kmCalmClear
5:53 AM7.2 °C4.4 °C82 %1013.9 hPa16.1 kmCalmClear
6:53 AM6.7 °C3.9 °C82 %1014.6 hPa16.1 kmSouth (190°)5.6 km/hClear
7:53 AM8.9 °C5.6 °C80 %1014.6 hPa16.1 kmCalmClear
8:53 AM13.9 °C7.8 °C67 %1013.9 hPa16.1 kmCalmClear
9:53 AM20 °C7.8 °C45 %1013.2 hPa16.1 kmCalmClear
10:53 AM22.2 °C8.9 °C43 %1012.9 hPa16.1 kmNE (40°)11.1 km/hClear
11:53 AM23.3 °C7.2 °C35 %1012.5 hPa16.1 kmNNE (30°)9.3 km/hClear
12:53 PM25 °C6.7 °C31 %1011.9 hPa16.1 kmCalmClear
1:53 PM25.6 °C5 °C27 %1011.2 hPa16.1 kmNNE (30°)14.8 km/hClear
2:53 PM25 °C4.4 °C26 %1011.2 hPa16.1 kmCalmScattered Clouds
3:53 PM23.3 °C5.6 °C32 %1011.2 hPa16.1 kmCalm0 mm
4:53 PM22.8 °C7.8 °C38 %1011.2 hPa16.1 kmCalmPartly Cloudy
5:53 PM22.8 °C7.8 °C38 %1011.5 hPa16.1 kmNorth (360°)7.4 km/hOvercast
6:53 PM20 °C8.9 °C49 %1012.2 hPa16.1 kmCalmPartly Cloudy
7:53 PM17.8 °C8.3 °C54 %1012.9 hPa16.1 kmCalmScattered Clouds
8:53 PM16.1 °C7.2 °C56 %1012.5 hPa16.1 kmCalmClear
9:53 PM13.9 °C7.2 °C64 %1011.9 hPa16.1 kmCalmClear
10:53 PM12.8 °C6.7 °C67 %1011.9 hPa16.1 kmCalmClear
11:53 PM11.1 °C6.1 °C71 %1011.9 hPa16.1 kmCalmClear
Hourly data recorded from KTVL, located 0 kilometers away from South Lake Tahoe, California







STORIES FROM OUR PARTNERS